Regional Weather Roundup
Issued by NWS Albany, NY

Current Version | Previous Version | Graphics & Text | Print | Product List | Glossary Off
Versions: 1 2 3 4 5 6 7 8 9 10 11 12 13 14 15 16 17 18 19 20 21 22 23 24 25 26 27

000
ASUS41 KALY 240610
RWRALY

NEW YORK STATE HOURLY WEATHER ROUNDUP
NATIONAL WEATHER SERVICE ALBANY NY
200 AM EDT THU APR 24 2014

NOTE: "FAIR" INDICATES FEW OR NO CLOUDS BELOW 12,000 FEET WITH NO
SIGNIFICANT WEATHER AND/OR NO OBSTRUCTIONS TO VISIBILITY.

NYZ032-033-038>043-046>054-057>066-NYZ062>081-240700-
EAST


CITY           SKY/WX    TMP DP  RH WIND       PRES   REMARKS
ALBANY         FAIR      39  28  64 NW9       29.81F WCI  33
GLENS FALLS    FAIR      45  21  38 NW12      29.80R
POUGHKEEPSIE   FAIR      44  26  49 NW10      29.81R
NEWBURGH       CLEAR     41  30  65 W14       29.83S
MONTGOMERY     FAIR      37  28  70 SW7       29.83S WCI  32
WHITE PLAINS   FAIR      42  28  57 W12G21    29.79S
ISLIP          FAIR      46  25  43 NW17G26   29.77S
NEW YORK CITY  FAIR      44  30  57 NW18G25   29.84S
CENTRAL PARK   FAIR      44  29  55 W9G22     29.87R
$$

NYZ005>009-017-018-044>046-055-056-240700-
CENTRAL


CITY           SKY/WX    TMP DP  RH WIND       PRES   REMARKS
FULTON         FAIR      39  20  46 NW14G23   29.98R WCI  31
SYRACUSE       FAIR      38  21  50 W9        29.97R WCI  31
ROME           FAIR      29  26  89 NW7       29.93R WCI  22
ELMIRA         FAIR      36  17  46 W10       29.98R WCI  28
BINGHAMTON     FAIR      34  21  59 NW10      29.91R WCI  26
MONTICELLO     FAIR      36  27  69 NW14G24   29.84S WCI  27
$$

NYZ026>034-041>043-240700-
NORTH


CITY           SKY/WX    TMP DP  RH WIND       PRES   REMARKS
WATERTOWN      FAIR      38  16  40 NW9       29.97R WCI  31
FORT DRUM      NOT AVBL
MASSENA        FAIR      37  16  42 NW9       29.91R WCI  30
SARANAC LAKE   FAIR      32  12  43 VRB6      29.80R WCI  26
PLATTSBURGH    FAIR      39  18  42 NW15G24   29.81R WCI  31
$$

NYZ001>004-010>016-019>021-240700-
WEST


CITY           SKY/WX    TMP DP  RH WIND       PRES   REMARKS
NIAGARA FALLS  FAIR      33  23  66 NW8       30.08R WCI  26
BUFFALO        FAIR      36  24  62 NW9       30.07R WCI  29
DUNKIRK        FAIR      32  24  72 CALM      30.09F
JAMESTOWN      FAIR      30  21  69 NW6       30.06S WCI  24
WELLSVILLE     FAIR      32  14  47 N15G21    30.00S WCI  22
ROCHESTER      FAIR      37  22  54 NW7       30.05R WCI  32
PENN YAN       FAIR      36  20  52 NW10G20   30.00R WCI  28
$$

             KEY
       WCI = WIND CHILL INDEX
       VSB = VISIBILITY
       HX  = HEAT INDEX
$$



USA.gov is the U.S. government's official web portal to all federal, state and local government web resources and services.